Fort Morgan, CO

10:59 AM MDT on June 23, 2017 (GMT -0600)
Fort Morgan

Weather History for KFMM - February, 2014

Change the Weather History Date:

Monday, February 10, 2014

  Actual Average (KAKO) Record (KAKO)
Temperature  
Mean Temperature 16 °F -  
Max Temperature 23 °F 41 °F 78 °F (2017)
Min Temperature 7 °F 16 °F -15 °F (1939)
Degree Days  
Heating Degree Days 48    
Moisture  
Dew Point 11 °F    
Average Humidity 86    
Maximum Humidity 94    
Minimum Humidity 75    
Precipitation  
Precipitation 0.00 in - - ()
Sea Level Pressure  
Sea Level Pressure 30.07 in    
Wind  
Wind Speed 6 mph (WNW)    
Max Wind Speed 9 mph    
Max Gust Speed -    
Visibility 5 miles    
Events Fog , Snow    
Averages and records for this station are not official NWS values.
T = Trace of Precipitation, MM = Missing Value Source: NWS Daily Summary

Daily Weather History Graph

Daily Weather History Graph

Search for Another Location

Airport or City:

Trip Planner

Search our weather history database for the weather conditions in past years. The results will help you decide how hot, cold, wet, or windy it might be!

Date:

Astronomy

Feb. 10, 2014 Rise Set
Actual Time 6:54 AM MST 5:24 PM MST
Civil Twilight 6:26 AM MST 5:52 PM MST
Nautical Twilight 5:54 AM MST 6:25 PM MST
Astronomical Twilight 5:22 AM MST 6:56 PM MST
Moon 1:55 PM MST (2/10) 3:49 AM MST (2/10)
Length of Visible Light 11h 26m
Length of Day
10h 30m
Waxing Gibbous, 85% of the Moon is Illuminated
Feb 10
Waxing Gibbous
Feb 14
Full
Feb 22
Last Quarter
Mar 1
New
Mar 8
First Quarter

Hourly Weather History & Observations

Time (MST) Temp. Windchill Dew Point Humidity Pressure Visibility Wind Dir Wind Speed Gust Speed Precip Events Conditions
12:15 AM 10.4 °F -0.4 °F 7.5 °F 88% 30.11 in 10.0 mi ENE 6.9 mph - N/A   Overcast
12:35 AM 10.4 °F -1.5 °F 7.3 °F 87% 30.09 in 10.0 mi ENE 8.1 mph - N/A   Overcast
12:55 AM 10.6 °F -1.3 °F 7.5 °F 87% 30.09 in 10.0 mi ENE 8.1 mph - N/A   Overcast
1:15 AM 10.8 °F -1.1 °F 7.5 °F 87% 30.09 in 10.0 mi ENE 8.1 mph - N/A   Overcast
1:35 AM 10.8 °F -2.0 °F 7.5 °F 87% 30.08 in 10.0 mi NE 9.2 mph - N/A   Overcast
1:55 AM 10.6 °F -1.3 °F 7.5 °F 87% 30.08 in 10.0 mi ENE 8.1 mph - N/A   Overcast
2:15 AM 10.9 °F -0.8 °F 7.7 °F 87% 30.07 in 10.0 mi ENE 8.1 mph - N/A   Overcast
2:35 AM 10.4 °F -1.5 °F 7.5 °F 88% 30.07 in 10.0 mi East 8.1 mph - N/A   Overcast
2:55 AM 10.4 °F -0.4 °F 7.3 °F 87% 30.08 in 10.0 mi ENE 6.9 mph - N/A   Overcast
3:15 AM 10.4 °F 0.8 °F 7.5 °F 88% 30.07 in 10.0 mi ENE 5.8 mph - N/A   Overcast
3:35 AM 10.4 °F 0.8 °F 7.5 °F 88% 30.07 in 10.0 mi ENE 5.8 mph - N/A   Overcast
3:55 AM 10.2 °F 0.6 °F 7.5 °F 89% 30.07 in 10.0 mi NE 5.8 mph - N/A   Overcast
4:15 AM 10.2 °F 2.0 °F 7.5 °F 89% 30.07 in 10.0 mi ENE 4.6 mph - N/A   Overcast
4:35 AM 10.2 °F 0.6 °F 7.5 °F 89% 30.07 in 10.0 mi ENE 5.8 mph - N/A   Overcast
4:55 AM 10.2 °F 0.6 °F 7.5 °F 89% 30.07 in 10.0 mi ENE 5.8 mph - N/A   Overcast
5:15 AM 10.2 °F 3.8 °F 7.7 °F 90% 30.07 in 10.0 mi ENE 3.5 mph - N/A   Overcast
5:35 AM 10.4 °F - 8.2 °F 91% 30.07 in 7.0 mi Calm Calm - N/A   Overcast
5:55 AM 10.6 °F - 8.6 °F 92% 30.07 in 5.0 mi North - - N/A   Overcast
6:15 AM 10.4 °F - 9.0 °F 94% 30.06 in 4.0 mi North - - N/A   Overcast
6:35 AM 10.4 °F - 9.0 °F 94% 30.06 in 3.0 mi Calm Calm - N/A   Overcast
6:55 AM 10.4 °F - 8.8 °F 93% 30.06 in 2.5 mi Calm Calm - N/A   Overcast
7:15 AM 10.8 °F - 9.0 °F 92% 30.05 in 1.0 mi Calm Calm - N/A Snow Light Snow
7:35 AM 11.1 °F - 9.3 °F 92% 30.07 in 1.8 mi Calm Calm - N/A Snow Light Snow
7:55 AM 11.7 °F - 9.7 °F 92% 30.06 in 1.5 mi Calm Calm - N/A Snow Light Snow
8:15 AM - - - N/A% 30.07 in 1.2 mi West 4.6 mph - N/A   Unknown
8:35 AM - - - N/A% 30.07 in 3.0 mi West 5.8 mph - N/A   Overcast
8:55 AM - - - N/A% 30.06 in 3.0 mi WSW 4.6 mph - N/A   Overcast
9:15 AM - - - N/A% 30.07 in 4.0 mi West 6.9 mph - N/A   Haze
9:35 AM - - - N/A% 30.07 in 4.0 mi WSW 9.2 mph - N/A   Haze
9:55 AM - - - N/A% 30.08 in 4.0 mi WSW 8.1 mph - N/A   Haze
10:15 AM - - - N/A% 30.08 in 4.0 mi West 6.9 mph - N/A   Unknown
10:35 AM - - - N/A% 30.07 in 2.5 mi WSW 6.9 mph - N/A   Unknown
10:55 AM - - - N/A% 30.08 in 2.5 mi WSW 8.1 mph - N/A   Unknown
11:15 AM 18.5 °F 10.4 °F 14.0 °F 83% 30.07 in 1.2 mi WSW 5.8 mph - N/A Snow Light Snow
11:35 AM 18.5 °F 10.4 °F 14.0 °F 83% 30.06 in 1.5 mi WSW 5.8 mph - N/A Snow Light Snow
11:55 AM 19.9 °F 13.4 °F 14.9 °F 81% 30.05 in 1.0 mi WSW 4.6 mph - N/A Snow Light Snow
12:15 PM 19.8 °F - 14.7 °F 81% 30.04 in 1.8 mi Calm Calm - N/A Snow Light Snow
12:35 PM 21.0 °F - 15.1 °F 78% 30.03 in 1.0 mi Calm Calm - N/A Snow Light Snow
12:55 PM 21.6 °F - 14.9 °F 76% 30.03 in 4.0 mi Calm Calm - N/A   Haze
1:15 PM 21.7 °F - 15.1 °F 76% 30.02 in 5.0 mi Calm Calm - N/A   Haze
1:35 PM 22.1 °F 15.9 °F 15.3 °F 75% 30.03 in 5.0 mi North 4.6 mph - N/A   Haze
1:55 PM 21.9 °F 17.2 °F 15.3 °F 76% 30.03 in 4.0 mi North 3.5 mph - N/A   Haze
2:15 PM 21.2 °F 16.4 °F 14.9 °F 77% 30.03 in 4.0 mi NNW 3.5 mph - N/A   Haze
2:35 PM 21.6 °F 15.3 °F 15.4 °F 77% 30.03 in 4.0 mi North 4.6 mph - N/A   Haze
2:55 PM 20.7 °F - 14.9 °F 78% 30.03 in 4.0 mi Calm Calm - N/A   Haze
3:15 PM 22.5 °F - 15.6 °F 75% 30.04 in 5.0 mi North - - N/A   Haze
3:35 PM 22.1 °F 15.9 °F 15.4 °F 76% 30.04 in 5.0 mi North 4.6 mph - N/A   Haze
3:55 PM 21.9 °F - 15.8 °F 77% 30.05 in 5.0 mi Calm Calm - N/A   Haze
4:15 PM 23.0 °F - 16.2 °F 75% 30.05 in 5.0 mi Calm Calm - N/A   Haze
4:35 PM 22.6 °F - 16.0 °F 76% 30.06 in 5.0 mi Calm Calm - N/A   Haze
4:55 PM 21.6 °F 13.0 °F 16.3 °F 80% 30.05 in 5.0 mi SSW 6.9 mph - N/A   Haze
5:15 PM 19.0 °F 11.1 °F 14.7 °F 83% 30.06 in 5.0 mi SW 5.8 mph - N/A   Haze
5:35 PM 17.2 °F 8.9 °F 13.6 °F 86% 30.07 in 5.0 mi WSW 5.8 mph - N/A   Clear
5:55 PM 16.3 °F 6.7 °F 13.8 °F 90% 30.07 in 5.0 mi SW 6.9 mph - N/A   Clear
6:15 PM 13.1 °F 1.8 °F 10.9 °F 91% 30.09 in 5.0 mi WSW 8.1 mph - N/A   Clear
6:35 PM 12.2 °F 4.3 °F 10.4 °F 92% 30.10 in 4.0 mi WSW 4.6 mph - N/A   Clear
6:55 PM 13.1 °F 2.8 °F 11.3 °F 93% 30.10 in 4.0 mi West 6.9 mph - N/A   Clear
7:15 PM 12.9 °F 1.6 °F 11.3 °F 93% 30.11 in 3.0 mi WSW 8.1 mph - N/A   Scattered Clouds
7:35 PM 12.7 °F 0.4 °F 11.1 °F 93% 30.10 in 3.0 mi West 9.2 mph - N/A   Mostly Cloudy
7:55 PM 14.4 °F 4.3 °F 12.7 °F 93% 30.11 in 4.0 mi West 6.9 mph - N/A   Mostly Cloudy
8:15 PM 16.0 °F 8.8 °F 14.4 °F 93% 30.11 in 4.0 mi WSW 4.6 mph - N/A   Overcast
8:35 PM 15.8 °F 10.2 °F 14.2 °F 93% 30.11 in 3.0 mi WSW 3.5 mph - N/A   Mostly Cloudy
8:55 PM 14.5 °F 8.8 °F 12.9 °F 93% 30.12 in 3.0 mi West 3.5 mph - N/A   Mostly Cloudy
9:15 PM 11.7 °F 3.7 °F 9.9 °F 92% 30.12 in 0.5 mi SW 4.6 mph - N/A Fog Light Freezing Fog
9:35 PM 10.8 °F -1.1 °F 9.1 °F 93% 30.12 in 0.2 mi West 8.1 mph - N/A Fog Light Freezing Fog
9:55 PM 7.7 °F -2.4 °F 5.4 °F 90% 30.12 in 0.2 mi West 5.8 mph - N/A Fog Light Freezing Fog
10:15 PM - - - N/A% 30.12 in 1.8 mi WNW 4.6 mph - N/A   Scattered Clouds
10:35 PM - - - N/A% 30.13 in 2.0 mi Calm Calm - N/A   Scattered Clouds
10:55 PM - - - N/A% 30.13 in 2.0 mi NW 5.8 mph - N/A   Mostly Cloudy
11:15 PM - - - N/A% 30.13 in 3.0 mi NNW 6.9 mph - N/A   Mostly Cloudy
11:35 PM - - - N/A% 30.12 in 3.0 mi NNW 4.6 mph - N/A   Clear
11:55 PM - - - N/A% 30.12 in 3.0 mi NNW 5.8 mph - N/A   Clear